Weather History for KMTN - August, 2012

Change the Weather History Date:

Saturday, August 4, 2012

  Actual Average Record
Temperature  
Mean Temperature 86 °F -  
Max Temperature 91 °F 82 °F 96 °F (2007)
Min Temperature 80 °F 67 °F 62 °F (1998)
Cooling Degree Days 20    
Growing Degree Days 36 (Base 50)    
Moisture  
Dew Point 76 °F    
Average Humidity 81    
Maximum Humidity 94    
Minimum Humidity 25    
Precipitation  
Precipitation 0.00 in - - ()
Sea Level Pressure  
Sea Level Pressure 30.13 in    
Wind  
Wind Speed 8 mph (SSE)    
Max Wind Speed 16 mph    
Max Gust Speed 24 mph    
Visibility 9 miles    
Events      
Averages and records for this station are not official NWS values.
T = Trace of Precipitation, MM = Missing Value Source: NWS Daily Summary

Daily Weather History Graph

Daily Weather History Graph

Search for Another Location

Airport or City:

Trip Planner

Search our weather history database for the weather conditions in past years. The results will help you decide how hot, cold, wet, or windy it might be!

Date:

Astronomy

Aug. 04, 2012 Rise Set
Actual Time 6:08 AM EDT 8:13 PM EDT
Civil Twilight 5:39 AM EDT 8:43 PM EDT
Nautical Twilight 5:02 AM EDT 9:19 PM EDT
Astronomical Twilight 4:23 AM EDT 9:58 PM EDT
Moon 9:23 PM EDT (8/4) 8:52 AM EDT (8/4)
Length of Visible Light 15h 04m
Length of Day
14h 05m
Waning Gibbous, 92% of the Moon is Illuminated
Aug 4
Waning Gibbous
Aug 9
Last Quarter
Aug 17
New
Aug 24
First Quarter
Aug 31
Full

Hourly Weather History & Observations

Time (EDT) Temp. Heat Index Dew Point Humidity Pressure Visibility Wind Dir Wind Speed Gust Speed Precip Events Conditions
12:00 AM 82.4 °F 92.4 °F 78.8 °F 89% 30.10 in 10.0 mi SSE 5.8 mph - N/A   Scattered Clouds
12:21 AM 82.4 °F 92.4 °F 78.8 °F 89% 30.10 in 10.0 mi SSE 5.8 mph - N/A   Mostly Cloudy
12:42 AM 82.4 °F 92.4 °F 78.8 °F 89% 30.10 in 10.0 mi SE 10.4 mph - N/A   Scattered Clouds
1:03 AM 82.4 °F 92.4 °F 78.8 °F 89% 30.10 in 10.0 mi SSE 8.1 mph - N/A   Scattered Clouds
1:24 AM 80.6 °F 88.1 °F 78.8 °F 94% 30.10 in 10.0 mi SSE 6.9 mph - N/A   Scattered Clouds
1:48 AM 80.6 °F 87.1 °F 77.0 °F 89% 30.09 in 10.0 mi SSE 9.2 mph - N/A   Clear
2:09 AM 80.6 °F 87.1 °F 77.0 °F 89% 30.09 in 10.0 mi SSE 8.1 mph - N/A   Clear
2:30 AM 80.6 °F 88.1 °F 78.8 °F 94% 30.09 in 10.0 mi SSE 5.8 mph - N/A   Clear
2:51 AM 80.6 °F 88.1 °F 78.8 °F 94% 30.09 in 10.0 mi SSE 8.1 mph - N/A   Clear
3:12 AM 80.6 °F 88.1 °F 78.8 °F 94% 30.09 in 10.0 mi SSE 8.1 mph - N/A   Scattered Clouds
3:33 AM 80.6 °F 88.1 °F 78.8 °F 94% 30.09 in 10.0 mi SE 9.2 mph - N/A   Scattered Clouds
3:54 AM 80.6 °F 88.1 °F 78.8 °F 94% 30.10 in 10.0 mi SSE 6.9 mph - N/A   Clear
4:15 AM 80.6 °F 88.1 °F 78.8 °F 94% 30.11 in 10.0 mi SSE 5.8 mph - N/A   Clear
4:36 AM 80.6 °F 88.1 °F 78.8 °F 94% 30.11 in 10.0 mi SSE 4.6 mph - N/A   Clear
4:57 AM 80.6 °F 88.1 °F 78.8 °F 94% 30.11 in 10.0 mi South 3.5 mph - N/A   Clear
5:21 AM 80.6 °F 88.1 °F 78.8 °F 94% 30.12 in 10.0 mi SSE 3.5 mph - N/A   Clear
5:30 AM 80.6 °F 88.1 °F 78.8 °F 94% 30.12 in 10.0 mi SSE 3.5 mph - N/A   Clear
5:45 AM 80.6 °F 88.1 °F 78.8 °F 94% 30.13 in 7.0 mi SSE 4.6 mph - N/A   Scattered Clouds
6:55 AM 80.6 °F 88.1 °F 78.8 °F 94% 30.15 in 7.0 mi SSE 4.6 mph - N/A   Scattered Clouds
7:45 AM 82.4 °F - 42.8 °F 25% 30.15 in 7.0 mi SE 5.8 mph - N/A   Scattered Clouds
7:55 AM 82.4 °F 92.4 °F 78.8 °F 89% 30.16 in 7.0 mi SE 5.8 mph - N/A   Mostly Cloudy
8:50 AM 84.2 °F 94.1 °F 77.0 °F 79% 30.16 in 10.0 mi SE 8.1 mph - N/A   Scattered Clouds
9:45 AM 84.2 °F 94.1 °F 77.0 °F 79% 30.17 in 7.0 mi SE 8.1 mph - N/A   Scattered Clouds
10:50 AM 86.0 °F 96.9 °F 77.0 °F 74% 30.18 in 7.0 mi SE 10.4 mph - N/A   Scattered Clouds
11:50 AM 87.8 °F 99.7 °F 77.0 °F 70% 30.18 in 7.0 mi ESE 9.2 mph - N/A   Scattered Clouds
12:45 PM 89.6 °F 102.2 °F 77.0 °F 66% 30.17 in 7.0 mi SE 10.4 mph - N/A   Scattered Clouds
2:45 PM 91.4 °F 100.1 °F 73.4 °F 55% 30.14 in 10.0 mi SSE 16.1 mph - N/A   Scattered Clouds
3:50 PM 89.6 °F 96.2 °F 71.6 °F 55% 30.14 in 10.0 mi SE 12.7 mph - N/A   Scattered Clouds
4:45 PM 91.4 °F 100.1 °F 73.4 °F 55% 30.13 in 10.0 mi SE 11.5 mph 17.3 mph N/A   Scattered Clouds
5:50 PM 89.6 °F 98.2 °F 73.4 °F 59% 30.12 in 10.0 mi SE 10.4 mph 17.3 mph N/A   Partly Cloudy
6:50 PM 89.6 °F 98.2 °F 73.4 °F 59% 30.12 in 10.0 mi SE 12.7 mph - N/A   Partly Cloudy
7:45 PM 86.0 °F 93.4 °F 73.4 °F 66% 30.11 in 10.0 mi SE 12.7 mph - N/A   Partly Cloudy
8:50 PM 86.0 °F 96.9 °F 77.0 °F 74% 30.13 in 10.0 mi SSE 11.5 mph - N/A   Partly Cloudy
9:45 PM 84.2 °F 94.1 °F 77.0 °F 79% 30.16 in 10.0 mi SSE 12.7 mph - N/A   Partly Cloudy
10:21 PM 84.2 °F 94.1 °F 77.0 °F 79% 30.17 in 10.0 mi SSE 15.0 mph 24.2 mph N/A   Clear
10:42 PM 82.4 °F 90.9 °F 77.0 °F 84% 30.18 in 10.0 mi SSE 16.1 mph 19.6 mph N/A   Clear
11:03 PM 82.4 °F 92.4 °F 78.8 °F 89% 30.17 in 10.0 mi SSE 15.0 mph 20.7 mph N/A   Clear
11:24 PM 82.4 °F 92.4 °F 78.8 °F 89% 30.17 in 10.0 mi SSE 12.7 mph - N/A   Clear
11:45 PM 82.4 °F 92.4 °F 78.8 °F 89% 30.16 in 10.0 mi SSE 16.1 mph 19.6 mph N/A   Clear